カタログに戻る

FENGYUN 1C DEB

運用中PO
NORAD 31663·DEBRIS·🇨🇳 China

打ち上げ May 10, 1999 から Taiyuan Satellite Launch Center

Loading…

次のパス (今後24時間)

TLE

最新Source: Space-Track

元期: Sep 12, 2026, 13:38 UTC

1 31663U 99025CBV 26255.56867211  .00001623  00000-0  17647-3 0  9990
2 31663  98.8422 194.6580 0188103  95.2943 266.9758 14.77693324 33162

AllMySatでFENGYUN 1C DEBをリアルタイム追跡

Download on the App Store